User: anonymous   Login
Location: Unspecified
(0.0000°N, 0.0000°E)
Time: 03:50:55
(UTC+01:00)
Language:

Centaur AC-64 - Orbit

View from above orbital plane
View from above orbital plane
View from above satellite
View from above satellite

Ground track
Ground track

The orbit data is extracted from the following two-line orbital elements,

1 15874U 85055B   16339.72010619  .00000961  00000-0  52007-3 0  9999
2 15874  23.0675 204.2803 6568138   3.1908 359.6244  3.18860299324241
Epoch (UTC): 04 December 2016 17:16:57
Eccentricity: 0.6568138
inclination: 23.0675°
perigee height: 313 km
apogee height: 25927 km
right ascension of ascending node: 204.2803°
argument of perigee: 3.1908°
revolutions per day: 3.18860299
mean anomaly at epoch: 359.6244°
orbit number at epoch: 32424

The dashed part of the orbit path shows where the satellite is in the earth's shadow,  

DLR